When you browse on this site, cookies collect data to enhance your experience and personalize the content and advertising you see.
Visit our Privacy Policy to learn more. By continuing to use the site, you agree to this use of cookies and data.
  • En España
  • Lista de países
  • Para 7 días
  • Temperatura del agua
  • Mapa Satelital
  • El tiempo en el mapa
  • Informadores
  • user-avatar
    Iniciar sesión

    Tiempo cada hora Benito Juárez

    Hoy, 22 Abril, Lunes

    Tiempo Temperatura Precipitaciones Viento Presión Humedad
    00:00 +15°C° 0 mm 1 mps 585 mmHg 66%
    01:00 +15°C° 0 mm 1 mps 584 mmHg 65%
    02:00 +15°C° 0 mm 1 mps 584 mmHg 63%
    03:00 +15°C° 0 mm 1 mps 584 mmHg 63%
    04:00 +14°C° 0 mm 1 mps 584 mmHg 63%
    05:00 +14°C° 0 mm 1 mps 584 mmHg 65%
    06:00 +18°C° 0 mm 1 mps 585 mmHg 58%
    07:00 +20°C° 0 mm 1 mps 587 mmHg 52%
    08:00 +23°C° 0 mm 1 mps 588 mmHg 45%
    09:00 +24°C° 0 mm 1 mps 588 mmHg 44%
    10:00 +25°C° 0 mm 2 mps 588 mmHg 42%
    11:00 +26°C° 0 mm 2 mps 589 mmHg 41%
    12:00 +26°C° 0 mm 3 mps 588 mmHg 43%
    13:00 +25°C° 0 mm 3 mps 587 mmHg 46%
    14:00 +25°C° 0 mm 3 mps 587 mmHg 49%
    15:00 +22°C° 2.7 mm 3 mps 586 mmHg 57%
    16:00 +20°C° 2.7 mm 2 mps 585 mmHg 66%
    17:00 +19°C° 2.7 mm 1 mps 584 mmHg 74%
    18:00 +18°C° 2.3 mm 2 mps 584 mmHg 75%
    19:00 +17°C° 2.3 mm 2 mps 584 mmHg 76%
    20:00 +17°C° 2.3 mm 2 mps 585 mmHg 76%
    21:00 +18°C° 0.2 mm 1 mps 584 mmHg 75%
    22:00 +16°C° 0.2 mm 1 mps 584 mmHg 74%
    23:00 +16°C° 0.2 mm 1 mps 584 mmHg 73%

    Mañana, 23 Abril, Martes

    Tiempo Temperatura Precipitaciones Viento Presión Humedad
    00:00 +16°C° 0 mm 1 mps 584 mmHg 72%
    01:00 +16°C° 0 mm 1 mps 583 mmHg 71%
    02:00 +15°C° 0 mm 1 mps 583 mmHg 71%
    03:00 +15°C° 0 mm 2 mps 583 mmHg 71%
    04:00 +15°C° 0 mm 2 mps 583 mmHg 71%
    05:00 +14°C° 0 mm 2 mps 583 mmHg 72%
    06:00 +17°C° 0 mm 2 mps 584 mmHg 64%
    07:00 +20°C° 0 mm 1 mps 585 mmHg 56%
    08:00 +23°C° 0 mm 1 mps 587 mmHg 48%
    09:00 +24°C° 0 mm 1 mps 587 mmHg 46%
    10:00 +25°C° 0 mm 2 mps 588 mmHg 45%
    11:00 +26°C° 0 mm 2 mps 588 mmHg 43%
    12:00 +25°C° 1.2 mm 2 mps 587 mmHg 51%
    13:00 +23°C° 1.2 mm 2 mps 585 mmHg 59%
    14:00 +21°C° 1.2 mm 2 mps 584 mmHg 67%
    15:00 +20°C° 2.6 mm 2 mps 583 mmHg 71%
    16:00 +20°C° 2.6 mm 1 mps 583 mmHg 76%
    17:00 +17°C° 2.6 mm 0 mps 582 mmHg 81%
    18:00 +18°C° 2.2 mm 1 mps 583 mmHg 82%
    19:00 +18°C° 2.2 mm 1 mps 583 mmHg 83%
    20:00 +16°C° 2.2 mm 2 mps 583 mmHg 84%
    21:00 +16°C° 0.8 mm 2 mps 584 mmHg 81%
    22:00 +17°C° 0.8 mm 2 mps 584 mmHg 77%
    23:00 +17°C° 0.8 mm 2 mps 584 mmHg 73%

    Pasado mañana, 24 Abril, Miércoles

    Tiempo Temperatura Precipitaciones Viento Presión Humedad
    00:00 +16°C° 0 mm 2 mps 583 mmHg 72%
    01:00 +16°C° 0 mm 2 mps 583 mmHg 72%
    02:00 +15°C° 0 mm 2 mps 582 mmHg 71%
    03:00 +15°C° 0 mm 2 mps 582 mmHg 72%
    04:00 +14°C° 0 mm 2 mps 582 mmHg 73%
    05:00 +14°C° 0 mm 2 mps 581 mmHg 74%
    06:00 +17°C° 0 mm 2 mps 583 mmHg 66%
    07:00 +19°C° 0 mm 2 mps 584 mmHg 58%
    08:00 +23°C° 0 mm 2 mps 586 mmHg 50%
    09:00 +24°C° 0 mm 2 mps 586 mmHg 45%
    10:00 +26°C° 0 mm 1 mps 587 mmHg 41%
    11:00 +28°C° 0 mm 1 mps 587 mmHg 37%
    12:00 +28°C° 0.1 mm 1 mps 586 mmHg 39%
    13:00 +27°C° 0.1 mm 2 mps 586 mmHg 40%
    14:00 +27°C° 0.1 mm 2 mps 585 mmHg 42%
    15:00 +25°C° 0.6 mm 1 mps 584 mmHg 49%
    16:00 +24°C° 0.6 mm 1 mps 583 mmHg 56%
    17:00 +22°C° 0.6 mm 1 mps 582 mmHg 63%
    18:00 +22°C° 0.1 mm 1 mps 582 mmHg 60%
    19:00 +20°C° 0.1 mm 2 mps 583 mmHg 56%
    20:00 +20°C° 0.1 mm 2 mps 583 mmHg 53%
    21:00 +19°C° 0 mm 2 mps 583 mmHg 51%
    22:00 +19°C° 0 mm 3 mps 583 mmHg 48%
    23:00 +18°C° 0 mm 3 mps 583 mmHg 46%

    25 Abril, Jueves

    Tiempo Temperatura Precipitaciones Viento Presión Humedad
    00:00 +18°C° 0 mm 3 mps 582 mmHg 47%
    01:00 +17°C° 0 mm 3 mps 582 mmHg 48%
    02:00 +17°C° 0 mm 3 mps 581 mmHg 49%
    03:00 +16°C° 0 mm 3 mps 581 mmHg 51%
    04:00 +16°C° 0 mm 3 mps 581 mmHg 52%
    05:00 +14°C° 0 mm 3 mps 582 mmHg 53%
    06:00 +17°C° 0 mm 2 mps 583 mmHg 48%
    07:00 +21°C° 0 mm 1 mps 585 mmHg 43%
    08:00 +23°C° 0 mm 1 mps 587 mmHg 38%
    09:00 +24°C° 0 mm 1 mps 587 mmHg 38%
    10:00 +25°C° 0 mm 1 mps 587 mmHg 38%
    11:00 +26°C° 0 mm 2 mps 588 mmHg 38%
    12:00 +25°C° 0 mm 2 mps 587 mmHg 45%
    13:00 +24°C° 0 mm 3 mps 586 mmHg 52%
    14:00 +22°C° 0 mm 3 mps 585 mmHg 59%
    15:00 +20°C° 0.7 mm 3 mps 584 mmHg 71%
    16:00 +19°C° 0.7 mm 3 mps 584 mmHg 82%
    17:00 +17°C° 0.7 mm 3 mps 583 mmHg 93%
    18:00 +16°C° 0.2 mm 2 mps 584 mmHg 93%
    19:00 +16°C° 0.2 mm 2 mps 585 mmHg 94%
    20:00 +16°C° 0.2 mm 1 mps 585 mmHg 95%
    21:00 +15°C° 0 mm 1 mps 585 mmHg 93%
    22:00 +15°C° 0 mm 1 mps 585 mmHg 92%
    23:00 +14°C° 0 mm 1 mps 585 mmHg 90%

    26 Abril, Viernes

    Tiempo Temperatura Precipitaciones Viento Presión Humedad
    00:00 +14°C° 0 mm 1 mps 585 mmHg 88%
    01:00 +13°C° 0 mm 1 mps 584 mmHg 86%
    02:00 +12°C° 0 mm 1 mps 584 mmHg 84%
    03:00 +12°C° 0 mm 1 mps 584 mmHg 80%
    04:00 +12°C° 0 mm 1 mps 584 mmHg 76%
    05:00 +11°C° 0 mm 1 mps 584 mmHg 72%
    06:00 +13°C° 0 mm 1 mps 585 mmHg 64%
    07:00 +15°C° 0 mm 1 mps 586 mmHg 56%
    08:00 +17°C° 0 mm 2 mps 588 mmHg 47%
    09:00 +18°C° 0 mm 2 mps 588 mmHg 45%
    10:00 +19°C° 0 mm 2 mps 588 mmHg 43%
    11:00 +21°C° 0 mm 3 mps 588 mmHg 41%
    12:00 +21°C° 0 mm 3 mps 588 mmHg 42%
    13:00 +21°C° 0 mm 3 mps 587 mmHg 44%
    14:00 +21°C° 0 mm 3 mps 587 mmHg 45%
    15:00 +19°C° 0 mm 3 mps 586 mmHg 52%
    16:00 +18°C° 0 mm 3 mps 586 mmHg 59%
    17:00 +16°C° 0 mm 3 mps 585 mmHg 66%
    18:00 +15°C° 0 mm 2 mps 585 mmHg 72%
    19:00 +14°C° 0 mm 1 mps 585 mmHg 77%
    20:00 +12°C° 0 mm 0 mps 586 mmHg 83%
    21:00 +12°C° 0 mm 0 mps 585 mmHg 82%
    22:00 +12°C° 0 mm 0 mps 585 mmHg 81%
    23:00 +12°C° 0 mm 0 mps 585 mmHg 81%

    27 Abril, Sábado

    Tiempo Temperatura Precipitaciones Viento Presión Humedad
    00:00 +12°C° 0 mm 0 mps 585 mmHg 82%
    01:00 +12°C° 0 mm 1 mps 584 mmHg 83%
    02:00 +12°C° 0 mm 1 mps 583 mmHg 84%
    03:00 +12°C° 0 mm 1 mps 584 mmHg 83%
    04:00 +11°C° 0 mm 1 mps 584 mmHg 82%
    05:00 +11°C° 0 mm 1 mps 584 mmHg 80%
    06:00 +14°C° 0 mm 1 mps 585 mmHg 69%
    07:00 +16°C° 0 mm 1 mps 586 mmHg 57%
    08:00 +20°C° 0 mm 1 mps 588 mmHg 45%
    09:00 +20°C° 0 mm 2 mps 588 mmHg 42%
    10:00 +21°C° 0 mm 2 mps 588 mmHg 40%
    11:00 +22°C° 0 mm 3 mps 588 mmHg 37%
    12:00 +22°C° 0 mm 3 mps 587 mmHg 36%
    13:00 +24°C° 0 mm 3 mps 587 mmHg 36%
    14:00 +24°C° 0 mm 3 mps 586 mmHg 36%
    15:00 +21°C° 0 mm 3 mps 586 mmHg 44%
    16:00 +20°C° 0 mm 2 mps 585 mmHg 51%
    17:00 +18°C° 0 mm 2 mps 584 mmHg 59%
    18:00 +17°C° 0 mm 2 mps 584 mmHg 66%
    19:00 +15°C° 0 mm 1 mps 584 mmHg 72%
    20:00 +14°C° 0 mm 1 mps 584 mmHg 79%
    21:00 +14°C° 0 mm 1 mps 584 mmHg 73%
    22:00 +14°C° 0 mm 1 mps 584 mmHg 67%
    23:00 +14°C° 0 mm 1 mps 584 mmHg 61%
    Mostrar más